�������l�o���
Date,Time,MP-1(��Sv/h),MP-2(��Sv/h),MP-3(��Sv/h),MP-4(��Sv/h),MP-5(��Sv/h),MP-6(��Sv/h),MP-7(��Sv/h),MP-8(��Sv/h),����,����(m/s),���J
2021/04/13,00:00,0.641,0.952,0.596,1.169,0.838,0.376,0.658,0.617,��,8.7,��
2021/04/13,00:10,0.640,0.951,0.595,1.170,0.839,0.376,0.660,0.617,��쐼,10.3,��
2021/04/13,00:20,0.641,0.950,0.595,1.170,0.838,0.376,0.659,0.617,��쐼,8.5,��
2021/04/13,00:30,0.640,0.951,0.594,1.171,0.838,0.375,0.659,0.618,��,8.8,��
2021/04/13,00:40,0.641,0.953,0.596,1.169,0.839,0.376,0.659,0.617,��,9.1,��
2021/04/13,00:50,0.641,0.951,0.596,1.171,0.835,0.374,0.659,0.617,��쐼,8.6,��
2021/04/13,01:00,0.641,0.953,0.595,1.169,0.839,0.375,0.659,0.617,��쐼,8.6,��
2021/04/13,01:10,0.642,0.951,0.594,1.168,0.838,0.374,0.662,0.616,��쐼,8.5,��
2021/04/13,01:20,0.640,0.953,0.594,1.172,0.838,0.374,0.660,0.618,��쐼,8.5,��
2021/04/13,01:30,0.641,0.951,0.596,1.169,0.839,0.374,0.659,0.616,��쐼,7.5,��
2021/04/13,01:40,0.641,0.951,0.596,1.170,0.838,0.375,0.659,0.618,��쐼,7.6,��
2021/04/13,01:50,0.641,0.950,0.596,1.171,0.839,0.376,0.659,0.617,��쐼,7.5,��
2021/04/13,02:00,0.642,0.949,0.595,1.171,0.838,0.376,0.661,0.618,��,7.9,��
2021/04/13,02:10,0.641,0.950,0.597,1.170,0.839,0.375,0.658,0.617,��쐼,7.2,��
2021/04/13,02:20,0.640,0.949,0.597,1.169,0.838,0.376,0.659,0.619,��쐼,8.0,��
2021/04/13,02:30,0.640,0.954,0.595,1.171,0.837,0.376,0.659,0.619,��쐼,7.1,��
2021/04/13,02:40,0.640,0.953,0.596,1.170,0.837,0.375,0.660,0.616,��쐼,6.8,��
2021/04/13,02:50,0.642,0.951,0.597,1.168,0.838,0.375,0.659,0.619,��쐼,6.6,��
2021/04/13,03:00,0.643,0.951,0.596,1.169,0.836,0.376,0.658,0.616,��쐼,7.8,��
2021/04/13,03:10,0.641,0.951,0.594,1.170,0.837,0.376,0.658,0.618,��,8.8,��
2021/04/13,03:20,0.641,0.952,0.596,1.170,0.838,0.374,0.659,0.618,��쐼,7.5,��
2021/04/13,03:30,0.643,0.951,0.595,1.169,0.839,0.376,0.660,0.618,��,8.9,��
2021/04/13,03:40,0.640,0.952,0.597,1.170,0.839,0.376,0.661,0.618,��쐼,9.6,��
2021/04/13,03:50,0.641,0.951,0.597,1.171,0.837,0.376,0.659,0.618,��,9.4,��
2021/04/13,04:00,0.642,0.951,0.596,1.169,0.838,0.376,0.660,0.619,��,8.9,��
2021/04/13,04:10,0.642,0.953,0.596,1.171,0.838,0.375,0.658,0.617,��쐼,8.3,��
2021/04/13,04:20,0.642,0.953,0.597,1.169,0.838,0.375,0.660,0.617,��,9.4,��
2021/04/13,04:30,0.643,0.952,0.595,1.170,0.839,0.375,0.658,0.618,��,9.0,��
2021/04/13,04:40,0.643,0.952,0.595,1.170,0.840,0.376,0.659,0.619,��,9.4,��
2021/04/13,04:50,0.644,0.952,0.596,1.172,0.839,0.375,0.661,0.618,��,9.8,��
2021/04/13,05:00,0.643,0.951,0.595,1.172,0.838,0.376,0.659,0.618,��쐼,9.2,��
2021/04/13,05:10,0.642,0.951,0.595,1.171,0.839,0.376,0.660,0.618,��,9.1,��
2021/04/13,05:20,0.642,0.952,0.596,1.172,0.837,0.374,0.658,0.617,��쐼,7.3,��
2021/04/13,05:30,0.642,0.952,0.595,1.169,0.839,0.377,0.659,0.619,��쐼,9.4,��
2021/04/13,05:40,0.644,0.951,0.596,1.170,0.839,0.375,0.658,0.617,��,10.0,��
2021/04/13,05:50,0.641,0.949,0.595,1.172,0.838,0.375,0.660,0.620,��,8.3,��
2021/04/13,06:00,0.641,0.951,0.595,1.173,0.839,0.376,0.661,0.618,��,9.2,��
2021/04/13,06:10,0.641,0.951,0.597,1.170,0.839,0.376,0.660,0.620,��쐼,9.0,��
2021/04/13,06:20,0.643,0.953,0.595,1.169,0.838,0.375,0.659,0.616,��,8.3,��
2021/04/13,06:30,0.641,0.950,0.597,1.172,0.839,0.376,0.657,0.618,��,8.7,��
2021/04/13,06:40,0.643,0.951,0.598,1.172,0.837,0.376,0.659,0.620,��쐼,9.5,��
2021/04/13,06:50,0.642,0.951,0.599,1.170,0.839,0.377,0.659,0.620,��,10.2,��
2021/04/13,07:00,0.643,0.953,0.596,1.172,0.840,0.376,0.658,0.618,��쐼,9.4,��
2021/04/13,07:10,0.641,0.952,0.597,1.171,0.838,0.376,0.659,0.619,��쐼,9.9,��
2021/04/13,07:20,0.642,0.951,0.596,1.172,0.837,0.377,0.658,0.619,��쐼,8.9,��
2021/04/13,07:30,0.642,0.949,0.596,1.174,0.837,0.373,0.658,0.618,��쐼,11.3,��
2021/04/13,07:40,0.641,0.949,0.597,1.172,0.839,0.375,0.658,0.616,��,11.6,��
2021/04/13,07:50,0.641,0.949,0.597,1.171,0.835,0.376,0.658,0.618,��,15.0,��
2021/04/13,08:00,0.641,0.947,0.597,1.173,0.836,0.376,0.658,0.618,��,13.8,��
2021/04/13,08:10,0.640,0.946,0.597,1.172,0.836,0.376,0.659,0.617,��,11.4,��
2021/04/13,08:20,0.639,0.947,0.598,1.172,0.836,0.375,0.657,0.617,��,10.9,��
2021/04/13,08:30,0.641,0.947,0.597,1.172,0.836,0.373,0.659,0.616,��,8.9,��
2021/04/13,08:40,0.640,0.947,0.596,1.172,0.836,0.375,0.659,0.616,��,11.6,��
2021/04/13,08:50,0.641,0.946,0.595,1.173,0.835,0.376,0.659,0.618,��,14.7,��
2021/04/13,09:00,0.639,0.946,0.595,1.173,0.839,0.376,0.658,0.616,��,9.4,��
2021/04/13,09:10,0.640,0.945,0.594,1.172,0.837,0.375,0.658,0.617,��,10.5,��
2021/04/13,09:20,0.640,0.945,0.596,1.174,0.836,0.376,0.658,0.616,��,12.5,��
2021/04/13,09:30,0.642,0.948,0.594,1.175,0.835,0.375,0.660,0.616,��,8.1,��
2021/04/13,09:40,0.640,0.945,0.595,1.174,0.838,0.375,0.659,0.616,��,10.5,��
2021/04/13,09:50,0.642,0.944,0.594,1.172,0.835,0.376,0.660,0.616,��쐼,8.3,��
2021/04/13,10:00,0.641,0.946,0.595,1.174,0.837,0.376,0.659,0.615,��,9.1,��
2021/04/13,10:10,0.642,0.945,0.593,1.174,0.837,0.375,0.657,0.615,��,11.3,��
2021/04/13,10:20,0.642,0.947,0.594,1.173,0.836,0.376,0.659,0.617,��,10.5,��
2021/04/13,10:30,0.642,0.947,0.595,1.173,0.835,0.376,0.661,0.617,��,11.6,��
2021/04/13,10:40,0.641,0.949,0.593,1.174,0.838,0.376,0.659,0.616,��,14.4,��
2021/04/13,10:50,0.642,0.948,0.596,1.176,0.839,0.375,0.659,0.615,��,11.6,��
2021/04/13,11:00,0.641,0.948,0.594,1.172,0.837,0.377,0.660,0.618,��,14.9,��
2021/04/13,11:10,0.641,0.948,0.595,1.174,0.838,0.377,0.661,0.616,��,12.7,��
2021/04/13,11:20,0.642,0.947,0.594,1.174,0.838,0.378,0.660,0.616,��,15.2,��
2021/04/13,11:30,0.642,0.951,0.596,1.176,0.840,0.377,0.661,0.617,��,12.4,��
2021/04/13,11:40,0.642,0.952,0.597,1.174,0.838,0.378,0.660,0.615,��,13.0,��
2021/04/13,11:50,0.643,0.950,0.597,1.172,0.838,0.378,0.661,0.617,��,15.2,��
2021/04/13,12:00,0.644,0.954,0.595,1.171,0.839,0.378,0.660,0.618,��,13.0,�L
2021/04/13,12:10,0.643,0.952,0.598,1.171,0.838,0.379,0.661,0.616,��,11.9,��
2021/04/13,12:20,0.642,0.950,0.597,1.170,0.838,0.378,0.661,0.616,��,14.1,��
2021/04/13,12:30,0.644,0.951,0.597,1.170,0.837,0.378,0.660,0.617,��,13.0,�L
2021/04/13,12:40,0.645,0.951,0.596,1.172,0.839,0.377,0.661,0.618,��,13.5,�L
2021/04/13,12:50,0.643,0.950,0.594,1.170,0.839,0.379,0.661,0.616,��,11.3,�L
2021/04/13,13:00,0.645,0.948,0.597,1.172,0.838,0.378,0.660,0.618,��,10.9,�L
2021/04/13,13:10,0.645,0.946,0.595,1.173,0.838,0.379,0.661,0.618,��,11.3,�L
2021/04/13,13:20,0.642,0.948,0.595,1.171,0.837,0.379,0.661,0.617,��,12.1,�L
2021/04/13,13:30,0.643,0.946,0.594,1.174,0.839,0.378,0.660,0.618,��,10.5,�L
2021/04/13,13:40,0.643,0.947,0.595,1.176,0.840,0.379,0.661,0.616,��,12.8,�L
2021/04/13,13:50,0.643,0.948,0.596,1.175,0.840,0.377,0.661,0.617,��,11.8,�L
2021/04/13,14:00,0.642,0.946,0.597,1.173,0.838,0.379,0.660,0.619,��,12.7,�L
2021/04/13,14:10,0.643,0.948,0.597,1.176,0.839,0.378,0.661,0.618,��,10.8,�L
2021/04/13,14:20,0.643,0.948,0.596,1.177,0.837,0.378,0.660,0.616,��,10.9,�L
2021/04/13,14:30,0.644,0.946,0.598,1.177,0.838,0.379,0.660,0.615,��,8.5,��
2021/04/13,14:40,0.643,0.949,0.597,1.178,0.840,0.378,0.660,0.618,��,10.3,��
2021/04/13,14:50,0.642,0.949,0.598,1.177,0.839,0.378,0.661,0.619,��,13.0,��
2021/04/13,15:00,0.644,0.951,0.601,1.174,0.838,0.379,0.661,0.620,��,10.3,�L
2021/04/13,15:10,0.643,0.951,0.599,1.174,0.837,0.378,0.661,0.618,��,11.3,�L
2021/04/13,15:20,0.645,0.951,0.599,1.175,0.840,0.378,0.661,0.619,��,11.3,�L
2021/04/13,15:30,0.644,0.951,0.598,1.177,0.840,0.379,0.660,0.619,��,13.0,�L
2021/04/13,15:40,0.646,0.952,0.597,1.178,0.839,0.379,0.662,0.618,��,14.6,�L
2021/04/13,15:50,0.642,0.949,0.599,1.177,0.840,0.380,0.661,0.620,��,11.0,��
2021/04/13,16:00,0.644,0.948,0.599,1.177,0.841,0.380,0.662,0.618,��,10.5,�L
2021/04/13,16:10,0.643,0.952,0.598,1.178,0.839,0.378,0.661,0.618,��쐼,11.9,�L
2021/04/13,16:20,0.643,0.951,0.599,1.178,0.838,0.378,0.660,0.620,��,11.6,�L
2021/04/13,16:30,0.645,0.951,0.599,1.175,0.838,0.377,0.660,0.619,��,11.8,�L
2021/04/13,16:40,0.645,0.952,0.599,1.178,0.838,0.379,0.659,0.617,��,8.3,�L
2021/04/13,16:50,0.644,0.953,0.599,1.177,0.839,0.378,0.661,0.618,��,12.4,�L
2021/04/13,17:00,0.645,0.952,0.599,1.175,0.837,0.378,0.660,0.619,��,13.1,��
2021/04/13,17:10,0.644,0.951,0.599,1.175,0.841,0.379,0.661,0.618,��,10.8,�L
2021/04/13,17:20,0.645,0.952,0.601,1.177,0.839,0.378,0.660,0.618,��,11.3,�L
2021/04/13,17:30,0.646,0.951,0.601,1.176,0.839,0.378,0.660,0.618,��,13.0,�L
2021/04/13,17:40,0.643,0.953,0.598,1.176,0.840,0.378,0.660,0.619,��,13.1,�L
2021/04/13,17:50,0.643,0.950,0.599,1.177,0.839,0.380,0.660,0.619,��,11.6,�L
2021/04/13,18:00,0.643,0.949,0.599,1.179,0.840,0.379,0.661,0.619,��,12.7,�L
2021/04/13,18:10,0.644,0.952,0.598,1.176,0.839,0.380,0.661,0.618,��,13.3,�L
2021/04/13,18:20,0.645,0.948,0.598,1.177,0.839,0.380,0.659,0.621,��,13.0,��
2021/04/13,18:30,0.643,0.950,0.599,1.178,0.838,0.379,0.660,0.617,��,12.7,��
2021/04/13,18:40,0.645,0.949,0.599,1.177,0.838,0.379,0.659,0.618,��,12.4,��
2021/04/13,18:50,0.643,0.949,0.598,1.175,0.840,0.379,0.661,0.619,��,13.6,��
2021/04/13,19:00,0.642,0.949,0.599,1.177,0.838,0.378,0.660,0.618,��,14.4,��
2021/04/13,19:10,0.644,0.949,0.599,1.175,0.837,0.379,0.660,0.619,��,13.3,��
2021/04/13,19:20,0.645,0.949,0.600,1.178,0.839,0.378,0.661,0.619,��,14.7,��
2021/04/13,19:30,0.644,0.951,0.600,1.175,0.839,0.379,0.662,0.619,��,14.2,��
2021/04/13,19:40,0.643,0.952,0.599,1.177,0.839,0.379,0.661,0.618,��,13.0,��
2021/04/13,19:50,0.642,0.952,0.600,1.176,0.838,0.380,0.661,0.618,��,13.3,��
2021/04/13,20:00,0.643,0.948,0.598,1.176,0.839,0.378,0.659,0.619,��,12.8,�L
2021/04/13,20:10,0.644,0.951,0.599,1.178,0.838,0.379,0.659,0.618,��,11.6,�L
2021/04/13,20:20,0.645,0.950,0.601,1.175,0.838,0.378,0.660,0.619,��,11.1,��
2021/04/13,20:30,0.644,0.950,0.598,1.177,0.838,0.380,0.660,0.620,��,13.0,��
2021/04/13,20:40,0.644,0.950,0.600,1.177,0.836,0.379,0.662,0.620,��,11.7,��
2021/04/13,20:50,0.644,0.952,0.601,1.176,0.838,0.379,0.660,0.619,��,10.7,��
2021/04/13,21:00,0.641,0.951,0.601,1.175,0.839,0.379,0.661,0.620,��,11.9,��
2021/04/13,21:10,0.644,0.950,0.600,1.177,0.836,0.379,0.660,0.618,��,12.2,��
2021/04/13,21:20,0.643,0.948,0.600,1.176,0.839,0.380,0.663,0.619,��쐼,11.0,��
2021/04/13,21:30,0.645,0.950,0.598,1.176,0.840,0.380,0.661,0.620,��,12.0,�L
2021/04/13,21:40,0.644,0.950,0.599,1.175,0.838,0.379,0.661,0.622,��,11.6,��
2021/04/13,21:50,0.644,0.950,0.599,1.175,0.839,0.380,0.661,0.621,��,12.0,��
2021/04/13,22:00,0.643,0.951,0.600,1.176,0.839,0.379,0.660,0.621,��,9.9,��
2021/04/13,22:10,0.642,0.950,0.599,1.177,0.839,0.379,0.662,0.618,��,10.2,��
2021/04/13,22:20,0.645,0.952,0.598,1.174,0.838,0.380,0.660,0.620,��,9.1,��
2021/04/13,22:30,0.644,0.952,0.599,1.176,0.838,0.379,0.661,0.620,��,8.2,��
2021/04/13,22:40,0.643,0.952,0.600,1.175,0.838,0.380,0.661,0.619,��,8.7,��
2021/04/13,22:50,0.645,0.949,0.601,1.178,0.838,0.378,0.660,0.619,��,8.6,��
2021/04/13,23:00,0.643,0.953,0.600,1.174,0.840,0.379,0.661,0.619,��,8.3,��
2021/04/13,23:10,0.644,0.950,0.598,1.173,0.839,0.380,0.661,0.621,��,8.4,��
2021/04/13,23:20,0.644,0.949,0.600,1.176,0.840,0.380,0.660,0.619,��,8.6,��
2021/04/13,23:30,0.644,0.951,0.599,1.177,0.840,0.379,0.662,0.619,��,6.1,��
2021/04/13,23:40,0.643,0.952,0.599,1.176,0.840,0.377,0.662,0.619,��,5.6,��
2021/04/13,23:50,0.646,0.949,0.600,1.176,0.839,0.378,0.663,0.619,��,6.8,��
